Date String (YYYY-MM-DD hh:mm:ss) UTC,Instrument flags,Ambient pressure (hPa),Sample flow (lpm),Bypass flow (lpm),Sample temperature (°C),Ambient temperature (°C),ASC tube jacket temperature (°C),LED temperature (°C),Box temperature (°C),Sample RH (%),Span deviation,Mass concentration (μg/m³),Mass concentration (μg/m³),Mass concentration (μg/m³)
DateTimeUTC,F1_M11,P_M11,Q1_M11,Q2_M11,T1_M11,T2_M11,T3_M11,T4_M11,T5_M11,U1_M11,ZSPAN_M11,X2_M11,X0_M11,X1_M11
2022-03-06 17:00:00,,0825.1,4.99,0.00,22.3,22.8,00.0,31.0,24.2,10.4,0000.0,0003.58,0004.58,0003.43
2022-03-06 17:01:00,,0825.1,5.01,0.00,22.2,22.5,00.0,31.0,24.1,10.4,0000.0,0003.47,0004.39,0003.32
2022-03-06 17:02:00,,0825.1,5.00,0.00,22.2,22.1,00.0,31.0,24.0,10.3,0000.0,0003.34,0004.11,0003.20
2022-03-06 17:03:00,,0825.1,5.00,0.00,22.2,21.9,00.0,31.0,24.0,10.3,0000.0,0003.25,0003.96,0003.10
2022-03-06 17:04:00,,0825.1,4.99,0.00,22.2,21.8,00.0,31.0,23.9,10.3,0000.0,0003.19,0003.90,0002.96
2022-03-06 17:05:00,,0825.1,5.00,0.00,22.1,21.6,00.0,31.0,23.8,10.3,0000.0,0003.08,0003.71,0002.81
2022-03-06 17:06:00,,0825.1,5.01,0.00,22.1,21.5,00.0,31.0,23.8,10.3,0000.0,0002.94,0003.55,0002.68
2022-03-06 17:07:00,,0825.1,5.00,0.00,22.1,21.4,00.0,31.0,23.8,10.2,0000.0,0002.76,0003.30,0002.52
2022-03-06 17:08:00,,0825.1,5.00,0.00,22.0,21.3,00.0,31.0,23.7,10.2,0000.0,0002.61,0003.11,0002.41
2022-03-06 17:09:00,,0825.2,5.00,0.00,22.0,21.5,00.0,31.0,23.7,10.1,0000.0,0002.51,0003.00,0002.32
2022-03-06 17:10:00,,0825.3,5.01,0.00,22.1,22.3,00.0,31.1,24.0,10.1,0000.0,0002.44,0002.91,0002.26
2022-03-06 17:11:00,,0825.2,5.00,0.00,22.3,23.1,00.0,31.1,24.3,10.1,0000.0,0002.43,0002.98,0002.22
2022-03-06 17:12:00,,0825.3,5.00,0.00,22.4,23.2,00.0,31.2,24.4,10.1,0000.0,0002.46,0003.90,0002.20
2022-03-06 17:13:00,,0825.2,5.01,0.00,22.4,22.9,00.0,31.2,24.3,10.1,0000.0,0002.46,0005.77,0002.20
2022-03-06 17:14:00,,0825.2,5.00,0.00,22.4,22.6,00.0,31.2,24.2,10.1,0000.0,0002.42,0005.66,0002.20
2022-03-06 17:15:00,,0825.2,5.00,0.00,22.4,22.3,00.0,31.2,24.2,10.1,0000.0,0002.40,0005.64,0002.20
2022-03-06 17:16:00,,0825.2,4.99,0.00,22.4,22.1,00.0,31.2,24.1,10.1,0000.0,0002.40,0005.64,0002.20
2022-03-06 17:17:00,,0825.2,5.00,0.00,22.3,22.0,00.0,31.2,24.0,10.1,0000.0,0002.41,0005.64,0002.21
2022-03-06 17:18:00,,0825.3,4.99,0.00,22.3,21.8,00.0,31.2,23.9,10.0,0000.0,0002.42,0005.65,0002.22
2022-03-06 17:19:00,,0825.3,5.00,0.00,22.2,21.7,00.0,31.2,23.9,10.0,0000.0,0002.43,0005.70,0002.22
2022-03-06 17:20:00,,0825.3,5.01,0.00,22.2,21.6,00.0,31.2,23.8,10.0,0000.0,0002.47,0005.79,0002.23
2022-03-06 17:21:00,,0825.3,4.99,0.00,22.2,21.6,00.0,31.2,23.8,10.0,0000.0,0002.48,0005.81,0002.23
2022-03-06 17:22:00,,0825.3,5.01,0.00,22.2,22.3,00.0,31.2,24.0,10.0,0000.0,0002.47,0005.74,0002.25
2022-03-06 17:23:00,,0825.3,4.99,0.00,22.4,23.0,00.0,31.3,24.3,10.0,0000.0,0002.45,0004.84,0002.27
2022-03-06 17:24:00,,0825.3,5.00,0.00,22.5,23.3,00.0,31.3,24.5,10.0,0000.0,0002.46,0002.88,0002.29
2022-03-06 17:25:00,,0825.4,4.99,0.00,22.5,23.0,00.0,31.3,24.4,10.0,0000.0,0002.46,0002.88,0002.29
2022-03-06 17:26:00,,0825.3,5.01,0.00,22.5,22.7,00.0,31.3,24.3,10.1,0000.0,0002.48,0002.85,0002.29
2022-03-06 17:27:00,,0825.3,5.00,0.00,22.5,22.4,00.0,31.3,24.2,10.0,0000.0,0002.54,0002.99,0002.33
2022-03-06 17:28:00,,0825.3,5.00,0.00,22.4,22.2,00.0,31.4,24.1,10.0,0000.0,0002.58,0003.03,0002.36
2022-03-06 17:29:00,,0825.3,5.00,0.00,22.4,22.0,00.0,31.3,24.1,10.0,0000.0,0002.64,0003.70,0002.41
2022-03-06 17:30:00,,0825.3,5.01,0.00,22.4,21.8,00.0,31.3,24.0,09.9,0000.0,0002.71,0004.53,0002.46
2022-03-06 17:31:00,,0825.3,4.99,0.00,22.3,21.7,00.0,31.3,24.0,10.0,0000.0,0002.75,0004.54,0002.52
2022-03-06 17:32:00,,0825.2,5.00,0.00,22.3,21.6,00.0,31.3,23.9,09.9,0000.0,0002.79,0004.62,0002.56
2022-03-06 17:33:00,,0825.2,4.99,0.00,22.2,21.6,00.0,31.3,23.9,09.9,0000.0,0002.79,0004.59,0002.57
2022-03-06 17:34:00,,0825.2,5.00,0.00,22.3,22.1,00.0,31.3,24.0,09.9,0000.0,0002.77,0004.55,0002.55
2022-03-06 17:35:00,,0825.2,5.01,0.00,22.4,22.9,00.0,31.4,24.3,09.7,0000.0,0002.74,0004.62,0002.51
2022-03-06 17:36:00,,0825.2,5.00,0.00,22.6,23.4,00.0,31.4,24.5,09.6,0000.0,0002.73,0004.66,0002.48
2022-03-06 17:37:00,,0825.2,4.99,0.00,22.6,23.2,00.0,31.4,24.5,09.6,0000.0,0002.71,0004.72,0002.44
2022-03-06 17:38:00,,0825.2,5.00,0.00,22.6,22.9,00.0,31.5,24.5,09.7,0000.0,0002.66,0004.61,0002.40
2022-03-06 17:39:00,,0825.2,4.99,0.00,22.6,22.6,00.0,31.5,24.3,09.8,0000.0,0002.62,0004.55,0002.35
2022-03-06 17:40:00,,0825.2,5.01,0.00,22.6,22.3,00.0,31.5,24.3,09.8,0000.0,0002.59,0004.17,0002.31
2022-03-06 17:41:00,,0825.2,5.00,0.00,22.5,22.0,00.0,31.5,24.2,09.8,0000.0,0002.54,0003.12,0002.28
2022-03-06 17:42:00,,0825.2,4.99,0.00,22.5,21.8,00.0,31.4,24.1,09.9,0000.0,0002.49,0003.08,0002.22
2022-03-06 17:43:00,,0825.2,5.01,0.00,22.4,21.6,00.0,31.4,24.1,09.9,0000.0,0002.44,0002.98,0002.17
2022-03-06 17:44:00,,0825.2,5.00,0.00,22.4,21.5,00.0,31.4,24.0,09.9,0000.0,0002.42,0003.04,0002.14
2022-03-06 17:45:00,,0825.2,4.99,0.00,22.3,21.5,00.0,31.4,24.0,09.9,0000.0,0002.42,0003.11,0002.12
2022-03-06 17:46:00,,0825.2,5.01,0.00,22.3,21.5,00.0,31.4,23.9,09.9,0000.0,0002.41,0003.05,0002.11
2022-03-06 17:47:00,,0825.2,5.00,0.00,22.4,22.3,00.0,31.4,24.1,09.8,0000.0,0002.39,0002.96,0002.12
2022-03-06 17:48:00,,0825.3,5.00,0.00,22.5,23.1,00.0,31.5,24.4,09.6,0000.0,0002.36,0004.39,0002.12
2022-03-06 17:49:00,,0825.3,5.00,0.00,22.7,23.5,00.0,31.5,24.6,09.5,0000.0,0002.36,0004.61,0002.12
2022-03-06 17:50:00,,0825.2,5.01,0.00,22.7,23.2,00.0,31.5,24.6,09.5,0000.0,0002.34,0004.60,0002.11
2022-03-06 17:51:00,,0825.2,4.99,0.00,22.7,22.8,00.0,31.5,24.5,09.5,0000.0,0002.33,0004.61,0002.09
2022-03-06 17:52:00,,0825.2,5.01,0.00,22.6,22.6,00.0,31.5,24.4,09.5,0000.0,0002.34,0004.62,0002.12
2022-03-06 17:53:00,,0825.2,5.00,0.00,22.6,22.3,00.0,31.5,24.3,09.6,0000.0,0002.36,0004.71,0002.15
2022-03-06 17:54:00,,0825.2,5.00,0.00,22.6,22.1,00.0,31.5,24.2,09.7,0000.0,0002.39,0004.72,0002.19
2022-03-06 17:55:00,,0825.2,5.00,0.00,22.5,21.9,00.0,31.5,24.1,09.8,0000.0,0002.46,0004.78,0002.24
2022-03-06 17:56:00,,0825.2,5.00,0.00,22.5,21.8,00.0,31.5,24.1,09.8,0000.0,0002.50,0004.77,0002.29
2022-03-06 17:57:00,,0825.2,5.01,0.00,22.4,21.7,00.0,31.5,24.0,09.9,0000.0,0002.56,0004.80,0002.35
2022-03-06 17:58:00,,0825.2,5.00,0.00,22.4,21.6,00.0,31.5,24.0,09.9,0000.0,0002.66,0004.94,0002.43
2022-03-06 17:59:00,,0825.2,5.01,0.00,22.3,21.5,00.0,31.5,24.0,09.8,0000.0,0002.78,0003.81,0002.52
